Regional Weather Roundup
Issued by NWS State College, PA

Home | Current Version | Previous Version | Graphics & Text | Print | Product List | Glossary On
Versions: 1 2 3 4 5 6 7 8 9 10 11 12 13 14 15 16 17 18 19 20 21 22 23 24 25 26 27 28 29 30 31 32 33 34 35 36 37 38 39 40 41 42 43 44 45 46 47 48 49 50
033
ASUS41 KCTP 240910
RWRCTP

REGIONAL WEATHER ROUNDUP
NATIONAL WEATHER SERVICE STATE COLLEGE PA
500 AM EDT SUN JUL 24 2016

Note: "fair" indicates few or no clouds below 12,000 feet with no
significant weather and/or obstructions to visibility.

* = STATION THAT DOES NOT REPORT PRECIPITATION /E.G. RAIN...SNOW...ETC/
    THUNDER OR FOG.

PAZ002>004-007>009-013>016-020>023-029>032-241000-
WESTERN PENNSYLVANIA

CITY           SKY/WX    TMP DP  RH WIND       PRES   REMARKS
ERIE           PTCLDY    66  61  84 S3        30.00S
MEADVILLE      PTCLDY    62  58  86 CALM      30.04R
FRANKLIN*      PTCLDY    61  57  88 CALM      30.07R
NEW CASTLE     FAIR      62  61  96 CALM      30.03S
BEAVER COUNTY  NOT AVBL
BUTLER*        CLEAR     63  59  88 NE3       30.07R
PITTSBURGH INT MOCLDY    71  66  84 CALM      30.03R
PITTSBURGH     PTCLDY    71  68  90 CALM      30.03R FOG
INDIANA*       PTCLDY    64  64 100 CALM      30.07S
LATROBE        CLEAR     66  66 100 CALM      30.04R FOG
WASHINGTON CO* CLOUDY    66  64  94 CALM      30.03S VSB 1/2
$$

PAZ004>006-010>012-017>019-024>028-033>037-041-042-045-046-049>053-241000-
CENTRAL PENNSYLVANIA

CITY           SKY/WX    TMP DP  RH WIND       PRES   REMARKS
BRADFORD       PTCLDY    57  54  89 CALM      30.07R
DUBOIS         CLEAR     61  57  87 CALM      30.05R
CLEARFIELD     CLEAR     60  55  83 CALM      30.05S
JOHNSTOWN      PTCLDY    67  64  90 CALM      30.08R FOG
ALTOONA        CLEAR     64  60  87 S5        30.05R
STATE COLLEGE  PTCLDY    64  56  75 CALM      30.03R
WILLIAMSPORT   CLEAR     64  58  80 CALM      29.98S
SELINSGROVE    CLEAR     61  60  97 CALM      29.99S
FT INDIANTOWN  CLEAR     65  58  78 CALM      29.98R
CAPITAL CITY   CLEAR     67  59  75 SW5       29.97S
HARRISBURG     PTCLDY    70  65  84 CALM      29.97R
YORK           CLEAR     63  61  93 CALM      29.98R
$$

PAZ038>040-043-044-047-048-054-055-060>062-067>071-241000-
EASTERN PENNSYLVANIA

CITY           SKY/WX    TMP DP  RH WIND       PRES   REMARKS
SCRANTON       PTCLDY    66  57  72 E7        29.99F
MOUNT POCONO   CLOUDY    65  32  29 NW6       30.03F
ALLENTOWN      CLEAR     65  60  84 CALM      29.96S
QUAKERTOWN*    SUNNY     64  63  94 CALM      29.98R
READING        CLEAR     69  65  86 CALM      29.96S
LANCASTER      CLEAR     66  66 100 W3        29.98R FOG
COATESVILLE    SUNNY     72  63  73 CALM      29.99S
POTTSTOWN      CLEAR     66  64  93 CALM      29.98S
BLUE BELL      CLEAR     63  63 100 CALM      29.95S
DOYLESTOWN     PTCLDY    66  62  87 CALM      29.96R
WILLOW GROVE   NOT AVBL
NORTH PHILA    CLEAR     73  62  68 N3        29.96R
PHILADELPHIA   PTCLDY    77  66  68 CALM      29.95R
$$




USA.gov is the U.S. government's official web portal to all federal, state and local government web resources and services.